Home   Weather   Tel Aviv   Past weeks
Flag for Israel

Past Weather in Tel Aviv, Israel — Yesterday and Last 2 Weeks

Now
88 °F

Passing clouds.


Feels Like: 94 °F
Forecast: 89 / 77 °F
Wind: 13 mph from Northwest

Location: Ben Gurion International Airport

Current Time: Jul 22, 2019 at 3:16:21 pm

Latest Report: Jul 22, 2019 at 2:50 pm


Visibility: N/A

Pressure: 29.74 "Hg

Humidity: 59%

Dew Point: 72 °F

Location of Tel AvivLocation

Past Weather in Tel Aviv — Graph

°F

Tel Aviv Temperature Yesterday

Maximum temperature yesterday: 88 °F (at 12:20 pm)
Minimum temperature yesterday: 75 °F (at 6:20 am)
Average temperature yesterday: 81 °F

High & Low Weather Summary for the Past Weeks

 TemperatureHumidityPressure
High106 °F (Jul 17, 10:50 am)89% (Jul 11, 3:50 am)29.86 "Hg (Jul 11, 3:50 am)
Low73 °F (Jul 11, 4:50 am)16% (Jul 17, 10:20 am)29.59 "Hg (Jul 17, 9:20 am)
Average83 °F65%29.76 "Hg
* Reported Jul 7 2:20 pm — Jul 22 2:20 pm, Tel Aviv. Weather by CustomWeather, © 2019

Note: Actual official high and low records may vary slightly from our data, if they occured in-between our weather recording intervals... More about our weather records

Advertising

Tel Aviv Weather History for the Previous 24 Hours

Scroll right to see more
 ConditionsComfort  
Time TempWeatherWind HumidityBarometerVisibility
2:20 pm
Mon, Jul 22
88 °FPassing clouds.13 mph55%29.74 "HgN/A
1:50 pm88 °FPassing clouds.12 mph55%29.74 "HgN/A
1:20 pm88 °FPassing clouds.10 mph55%29.74 "HgN/A
12:50 pm90 °FPassing clouds.12 mph52%29.74 "HgN/A
12:20 pm90 °FPassing clouds.12 mph52%29.74 "HgN/A
11:50 am90 °FPassing clouds.10 mph49%29.77 "HgN/A
11:20 am88 °FPassing clouds.10 mph55%29.77 "HgN/A
10:50 am88 °FPassing clouds.7 mph52%29.77 "HgN/A
10:20 am86 °FPassing clouds.8 mph59%29.77 "HgN/A
9:50 am84 °FPartly sunny.7 mph62%29.77 "HgN/A
9:20 am82 °FPartly sunny.8 mph66%29.77 "HgN/A
8:50 am82 °FPartly sunny.7 mph70%29.77 "HgN/A
8:20 am81 °FPassing clouds.6 mph74%29.77 "HgN/A
7:50 am79 °FPassing clouds.8 mph79%29.77 "HgN/A
7:20 am79 °FPassing clouds.8 mph79%29.77 "HgN/A
6:50 am77 °FScattered clouds.8 mph79%29.77 "HgN/A
6:20 am77 °FScattered clouds.8 mph79%29.77 "HgN/A
5:50 am77 °FPassing clouds.8 mph79%29.77 "HgN/A
5:20 am77 °FPassing clouds.7 mph79%29.77 "HgN/A
4:50 am77 °FPassing clouds.8 mph79%29.77 "HgN/A
4:20 am77 °FPassing clouds.8 mph79%29.77 "HgN/A
3:50 am77 °FPassing clouds.8 mph79%29.77 "HgN/A
3:20 am77 °FPassing clouds.8 mph79%29.77 "HgN/A
2:50 am77 °FPassing clouds.7 mph79%29.77 "HgN/A
2:20 am77 °FPassing clouds.7 mph79%29.77 "HgN/A
1:50 am79 °FPassing clouds.6 mph74%29.77 "HgN/A
1:20 am79 °FPartly cloudy.6 mph79%29.77 "HgN/A
12:50 am79 °FPassing clouds.5 mph79%29.77 "HgN/A
12:20 am79 °FClear.5 mph79%29.80 "Hg10 mi
11:50 pm
Sun, Jul 21
79 °FClear.6 mph79%29.80 "Hg10 mi
11:20 pm79 °FClear.6 mph74%29.80 "Hg10 mi
10:50 pm79 °FClear.5 mph79%29.80 "Hg10 mi
10:20 pm81 °FClear.6 mph70%29.80 "Hg10 mi
9:50 pm81 °FClear.3 mph70%29.80 "Hg10 mi
9:20 pm81 °FPassing clouds.6 mph70%29.80 "HgN/A
8:50 pm81 °FPassing clouds.7 mph74%29.77 "HgN/A
8:20 pm81 °FPassing clouds.8 mph70%29.77 "HgN/A
7:50 pm82 °FPassing clouds.8 mph70%29.77 "HgN/A
7:20 pm82 °FScattered clouds.8 mph66%29.77 "HgN/A
6:50 pm82 °FScattered clouds.8 mph66%29.77 "HgN/A
6:20 pm82 °FScattered clouds.10 mph66%29.77 "HgN/A
5:50 pm84 °FScattered clouds.12 mph62%29.77 "HgN/A
5:20 pm84 °FScattered clouds.10 mph62%29.77 "HgN/A
4:50 pm86 °FScattered clouds.9 mph59%29.77 "HgN/A
3:50 pm86 °FScattered clouds.14 mph59%29.77 "HgN/A
3:20 pm86 °FScattered clouds.13 mph59%29.77 "HgN/A
Weather by CustomWeather, © 2019

See weather overview